Regional Weather Roundup
Issued by NWS Northern Indiana

Home | Current Version | Previous Version | Graphics & Text | Print | Product List | Glossary On
Versions: 1 2 3 4 5 6 7 8 9 10 11 12 13 14 15 16 17 18 19 20 21 22 23 24 25 26 27 28 29 30 31 32 33 34 35 36 37 38 39 40 41 42 43 44 45 46 47 48 49 50
850
ASUS43 KIWX 050900
RWRIWX

KIWX WEATHER ROUNDUP
NATIONAL WEATHER SERVICE NORTHERN INDIANA
400 AM EST MON DEC 05 2016

NOTE: "FAIR" INDICATES FEW OR NO CLOUDS BELOW 12,000 FEET WITH NO
SIGNIFICANT WEATHER AND/OR OBSTRUCTIONS TO VISIBILITY.

* THESE STATIONS ARE NOT UNDER NWS QUALITY CONTROL. THEY ALSO MAY NOT
  REPORT WEATHER SUCH AS PRECIPITATION OR FOG.

INZ001>027-051000-
NORTHERN INDIANA

CITY           SKY/WX    TMP DP  RH WIND       PRES   REMARKS
SOUTH BEND     CLOUDY    32  31  96 SW12      29.99R WCI  23
GOSHEN         CLOUDY    33  29  85 W17       29.98R WCI  22
ANGOLA*        CLOUDY    34  34 100 W10       29.95R WCI  26
FORT WAYNE     CLOUDY    33  30  88 W14       30.00R WCI  23
PERU/GRISSOM   CLOUDY    33  33  99 W9        30.01R WCI  25

$$
INZ028>050-051000-
CENTRAL INDIANA

CITY           SKY/WX    TMP DP  RH WIND       PRES   REMARKS
LAFAYETTE      CLOUDY    32  31  96 W10G21    30.04R WCI  24
KOKOMO*        CLOUDY    33  32  96 W12       30.03R WCI  24
MUNCIE*        CLOUDY    35  31  85 W9        30.02R WCI  28
INDIANAPOLIS   CLOUDY    34  31  88 W10       30.04R WCI  26

$$
MIZ043>046-050>051-056>058-064>065-071>073-077>080-051000-
SOUTHWEST LOWER MICHIGAN

CITY           SKY/WX    TMP DP  RH WIND       PRES   REMARKS
BATTLE CREEK   CLOUDY    34  33  96 W10       29.92R WCI  26
BENTON HARBOR  CLOUDY    37  31  78 W15       29.96R
COLDWATER*     CLOUDY    34  33  95 W10       29.94R WCI  26
HILLSDALE*     CLOUDY    32  32 100 W13G18    29.91R WCI  22
HOLLAND        CLOUDY    37  31  78 W18G24    29.92R
GRAND RAPIDS   CLOUDY    34  31  88 W13       29.90R WCI  25
KALAMAZOO      CLOUDY    35  31  85 W10       29.92S WCI  27
STURGIS*       CLOUDY    34  32  92 W8        29.94S WCI  27
THREE RIVERS*  CLOUDY    35  33  94 SW5       29.95R WCI  31

$$
OHZ001>008-015>018-024>025-051000-
NORTHWEST OHIO

CITY           SKY/WX    TMP DP  RH WIND       PRES   REMARKS
DEFIANCE       CLOUDY    36  31  82 SW6       29.98R
FINDLAY        CLOUDY    35  30  82 W9        29.96R WCI  28
TOLEDO EXPRESS CLOUDY    34  33  96 W12       29.95R WCI  25
TOLEDO METCALF CLOUDY    36  33  89 W9        29.96R
LIMA           CLOUDY    34  32  92 W12       29.99R WCI  25

$$
AND FOR LAKE MICHIGAN COASTAL AND OPEN LAKE BUOY OBSERVATIONS

STATION/POSITION TEMP    WIND        PRES    VSBY  WAVE
                 AIR SEA DIR/SP/G                  HT/PER
                 (F)     (DEG/KT/KT) (MB)    (MI)  (FT/S)
CALUMET HARBOR    33     240/  7/ 15 1015.1R
BURNS HARBOR      36     240/ 17/ 23 1016.3R

$$
&&




USA.gov is the U.S. government's official web portal to all federal, state and local government web resources and services.